Regional Weather Roundup
Issued by NWS State College, PA

Home | Current Version | Previous Version | Graphics & Text | Print | Product List | Glossary On
Versions: 1 2 3 4 5 6 7 8 9 10 11 12 13 14 15 16 17 18 19 20 21 22 23 24 25 26 27 28 29 30 31 32 33 34 35 36 37 38 39 40 41 42 43 44 45 46 47 48 49 50
000
ASUS41 KCTP 300503
RWRCTP

REGIONAL WEATHER ROUNDUP
NATIONAL WEATHER SERVICE STATE COLLEGE PA
100 AM EDT SAT APR 30 2016

Note: "fair" indicates few or no clouds below 12,000 feet with no
significant weather and/or obstructions to visibility.

* = STATION THAT DOES NOT REPORT PRECIPITATION /E.G. RAIN...SNOW...ETC/
    THUNDER OR FOG.

PAZ002>004-007>009-013>016-020>023-029>032-300600-
WESTERN PENNSYLVANIA

CITY           SKY/WX    TMP DP  RH WIND       PRES   REMARKS
ERIE           CLEAR     38  35  89 S3        30.14F
MEADVILLE      MOCLDY    35  35 100 CALM      30.13F
FRANKLIN*      CLOUDY    41  37  87 CALM      30.14F
NEW CASTLE     CLOUDY    41  39  93 N7        30.14F
BEAVER COUNTY  NOT AVBL
BUTLER*        CLOUDY    45  39  81 W3        30.15R
PITTSBURGH INT CLOUDY    47  42  83 N8        30.11S
PITTSBURGH     CLOUDY    48  44  86 N7        30.10S
INDIANA*       CLOUDY    48  48 100 N5        30.13F
LATROBE        CLOUDY    50  50 100 CALM      30.11F
WASHINGTON CO* CLOUDY    48  43  81 N5        30.12S
$$

PAZ004>006-010>012-017>019-024>028-033>037-041-042-045-046-049>053-300600-
CENTRAL PENNSYLVANIA

CITY           SKY/WX    TMP DP  RH WIND       PRES   REMARKS
BRADFORD       CLOUDY    43  41  93 N5        30.11R FOG
DUBOIS         CLOUDY    45  43  93 N6        30.09F FOG
CLEARFIELD     LGT RAIN  45  43  93 E6        30.11F FOG
JOHNSTOWN      CLOUDY    47  42  83 N5        30.08S
ALTOONA        FOG       47  46  97 E3        30.11R VSB 1/4
STATE COLLEGE  CLOUDY    44  44  99 NE5       30.12S FOG
WILLIAMSPORT   CLOUDY    47  43  86 NE5       30.14S
SELINSGROVE    CLOUDY    47  44  90 CALM      30.16R
FT INDIANTOWN  CLOUDY    44  44 100 NE3       30.15R
CAPITAL CITY   CLOUDY    48  45  89 E6        30.14S FOG
HARRISBURG     LGT RAIN  47  45  93 E5        30.14R FOG
YORK           LGT RAIN  48  46  93 NE6       30.13S FOG
$$

PAZ038>040-043-044-047-048-054-055-060>062-067>071-300600-
EASTERN PENNSYLVANIA

CITY           SKY/WX    TMP DP  RH WIND       PRES   REMARKS
SCRANTON       CLOUDY    43  37  79 CALM      30.15R
MOUNT POCONO   CLOUDY    37  33  85 CALM      30.12S
ALLENTOWN      CLOUDY    46  37  71 NE5       30.16S
QUAKERTOWN*    CLOUDY    45  37  76 NE3       30.17R
READING        CLOUDY    46  39  76 NE3       30.15R
LANCASTER      CLOUDY    45  44  97 E5        30.15R
COATESVILLE    CLOUDY    45  45 100 CALM      30.16R
POTTSTOWN      CLOUDY    45  38  76 NE6       30.17R
BLUE BELL      CLOUDY    43  37  81 NE3       30.16R
DOYLESTOWN     CLOUDY    44  37  76 NE3       30.15S
WILLOW GROVE   NOT AVBL
NORTH PHILA    CLOUDY    46  42  86 NE8       30.18R FOG
PHILADELPHIA   CLOUDY    48  40  73 N7        30.16R
$$




USA.gov is the U.S. government's official web portal to all federal, state and local government web resources and services.